When you browse on this site, cookies collect data to enhance your experience and personalize the content and advertising you see.
Visit our Privacy Policy to learn more. By continuing to use the site, you agree to this use of cookies and data.
  • In Deutschland
  • Länderverzeichnis
  • Für 7 Tage
  • Wassertemperatur
  • Satellitenkarten
  • Wetterkarte
  • Widgets
  • user-avatar
    Anmelden

    Stündliche Wetter Oran

    Heute, 19 Juni, Mittwoch

    Zeit Temperatur Niederschläge Wind Luftdruck Luftfeuchtigkeit
    00:00 +21°C° 0 mm 3 m/S 751 mmHg 77%
    01:00 +21°C° 0 mm 3 m/S 751 mmHg 77%
    02:00 +21°C° 0 mm 3 m/S 750 mmHg 77%
    03:00 +21°C° 0 mm 3 m/S 750 mmHg 77%
    04:00 +21°C° 0 mm 3 m/S 750 mmHg 69%
    05:00 +22°C° 0 mm 3 m/S 750 mmHg 61%
    06:00 +24°C° 0 mm 3 m/S 751 mmHg 53%
    07:00 +25°C° 0 mm 4 m/S 751 mmHg 46%
    08:00 +27°C° 0 mm 4 m/S 751 mmHg 38%
    09:00 +29°C° 0 mm 4 m/S 751 mmHg 31%
    10:00 +29°C° 0 mm 4 m/S 751 mmHg 32%
    11:00 +30°C° 0 mm 5 m/S 751 mmHg 33%
    12:00 +32°C° 0 mm 5 m/S 751 mmHg 34%
    13:00 +30°C° 0 mm 5 m/S 750 mmHg 36%
    14:00 +30°C° 0 mm 5 m/S 749 mmHg 38%
    15:00 +29°C° 0 mm 5 m/S 749 mmHg 39%
    16:00 +29°C° 0 mm 4 m/S 749 mmHg 41%
    17:00 +28°C° 0 mm 4 m/S 749 mmHg 43%
    18:00 +27°C° 0 mm 4 m/S 749 mmHg 44%
    19:00 +27°C° 0 mm 4 m/S 749 mmHg 47%
    20:00 +26°C° 0 mm 4 m/S 750 mmHg 49%
    21:00 +25°C° 0 mm 3 m/S 750 mmHg 52%
    22:00 +25°C° 0 mm 4 m/S 750 mmHg 51%
    23:00 +25°C° 0 mm 4 m/S 750 mmHg 51%

    Morgen, 20 Juni, Donnerstag

    Zeit Temperatur Niederschläge Wind Luftdruck Luftfeuchtigkeit
    00:00 +23°C° 0 mm 4 m/S 750 mmHg 51%
    01:00 +23°C° 0 mm 4 m/S 749 mmHg 53%
    02:00 +22°C° 0 mm 4 m/S 749 mmHg 55%
    03:00 +22°C° 0 mm 4 m/S 749 mmHg 57%
    04:00 +22°C° 0 mm 4 m/S 749 mmHg 56%
    05:00 +22°C° 0 mm 5 m/S 749 mmHg 55%
    06:00 +23°C° 0 mm 5 m/S 749 mmHg 54%
    07:00 +24°C° 0 mm 6 m/S 750 mmHg 50%
    08:00 +27°C° 0 mm 6 m/S 750 mmHg 45%
    09:00 +28°C° 0 mm 7 m/S 750 mmHg 41%
    10:00 +29°C° 0 mm 7 m/S 750 mmHg 39%
    11:00 +29°C° 0 mm 7 m/S 750 mmHg 37%
    12:00 +30°C° 0 mm 7 m/S 749 mmHg 35%
    13:00 +30°C° 0 mm 7 m/S 749 mmHg 35%
    14:00 +30°C° 0 mm 7 m/S 749 mmHg 34%
    15:00 +30°C° 0 mm 7 m/S 748 mmHg 33%
    16:00 +29°C° 0 mm 6 m/S 748 mmHg 34%
    17:00 +28°C° 0 mm 5 m/S 748 mmHg 35%
    18:00 +28°C° 0 mm 5 m/S 748 mmHg 35%
    19:00 +27°C° 0 mm 4 m/S 749 mmHg 38%
    20:00 +26°C° 0 mm 4 m/S 749 mmHg 41%
    21:00 +25°C° 0 mm 4 m/S 749 mmHg 44%
    22:00 +23°C° 0 mm 4 m/S 749 mmHg 46%
    23:00 +23°C° 0 mm 4 m/S 750 mmHg 48%

    übermorgen, 21 Juni, Freitag

    Zeit Temperatur Niederschläge Wind Luftdruck Luftfeuchtigkeit
    00:00 +22°C° 0 mm 4 m/S 750 mmHg 50%
    01:00 +22°C° 0 mm 4 m/S 750 mmHg 52%
    02:00 +22°C° 0 mm 4 m/S 749 mmHg 54%
    03:00 +21°C° 0 mm 4 m/S 749 mmHg 57%
    04:00 +21°C° 0 mm 4 m/S 749 mmHg 58%
    05:00 +22°C° 0 mm 4 m/S 749 mmHg 60%
    06:00 +22°C° 0 mm 4 m/S 750 mmHg 61%
    07:00 +25°C° 0 mm 5 m/S 750 mmHg 54%
    08:00 +26°C° 0 mm 6 m/S 750 mmHg 48%
    09:00 +28°C° 0 mm 7 m/S 750 mmHg 41%
    10:00 +29°C° 0 mm 7 m/S 750 mmHg 40%
    11:00 +29°C° 0 mm 7 m/S 750 mmHg 39%
    12:00 +30°C° 0 mm 7 m/S 750 mmHg 38%
    13:00 +30°C° 0 mm 6 m/S 750 mmHg 38%
    14:00 +30°C° 0 mm 6 m/S 749 mmHg 38%
    15:00 +30°C° 0 mm 6 m/S 749 mmHg 38%
    16:00 +29°C° 0 mm 5 m/S 749 mmHg 40%
    17:00 +28°C° 0 mm 5 m/S 749 mmHg 42%
    18:00 +27°C° 0 mm 4 m/S 749 mmHg 45%
    19:00 +26°C° 0 mm 3 m/S 750 mmHg 51%
    20:00 +24°C° 0 mm 2 m/S 750 mmHg 57%
    21:00 +23°C° 0 mm 1 m/S 750 mmHg 63%
    22:00 +23°C° 0 mm 1 m/S 750 mmHg 63%
    23:00 +22°C° 0 mm 1 m/S 750 mmHg 64%

    22 Juni, Samstag

    Zeit Temperatur Niederschläge Wind Luftdruck Luftfeuchtigkeit
    00:00 +22°C° 0 mm 1 m/S 750 mmHg 65%
    01:00 +21°C° 0 mm 1 m/S 750 mmHg 72%
    02:00 +20°C° 0 mm 1 m/S 749 mmHg 76%
    03:00 +18°C° 0 mm 0 m/S 749 mmHg 79%
    04:00 +19°C° 0 mm 0 m/S 749 mmHg 76%
    05:00 +19°C° 0 mm 0 m/S 750 mmHg 72%
    06:00 +20°C° 0 mm 0 m/S 750 mmHg 69%
    07:00 +21°C° 0 mm 0 m/S 750 mmHg 61%
    08:00 +25°C° 0 mm 1 m/S 750 mmHg 54%
    09:00 +27°C° 0 mm 1 m/S 750 mmHg 46%
    10:00 +28°C° 0 mm 2 m/S 750 mmHg 44%
    11:00 +29°C° 0 mm 3 m/S 749 mmHg 42%
    12:00 +30°C° 0 mm 3 m/S 749 mmHg 40%
    13:00 +30°C° 0 mm 4 m/S 749 mmHg 41%
    14:00 +30°C° 0 mm 4 m/S 748 mmHg 43%
    15:00 +30°C° 0 mm 5 m/S 748 mmHg 45%
    16:00 +29°C° 0 mm 4 m/S 748 mmHg 47%
    17:00 +28°C° 0 mm 4 m/S 748 mmHg 50%
    18:00 +27°C° 0 mm 4 m/S 748 mmHg 52%
    19:00 +26°C° 0 mm 4 m/S 748 mmHg 60%
    20:00 +25°C° 0 mm 3 m/S 749 mmHg 68%
    21:00 +22°C° 0 mm 3 m/S 749 mmHg 75%
    22:00 +23°C° 0 mm 2 m/S 749 mmHg 78%
    23:00 +23°C° 0 mm 2 m/S 749 mmHg 81%

    23 Juni, Sonntag

    Zeit Temperatur Niederschläge Wind Luftdruck Luftfeuchtigkeit
    00:00 +21°C° 0 mm 2 m/S 749 mmHg 84%
    01:00 +21°C° 0 mm 2 m/S 749 mmHg 85%
    02:00 +21°C° 0 mm 2 m/S 749 mmHg 85%
    03:00 +21°C° 0 mm 2 m/S 748 mmHg 86%
    04:00 +23°C° 0 mm 2 m/S 749 mmHg 85%
    05:00 +23°C° 0 mm 2 m/S 749 mmHg 84%
    06:00 +23°C° 0 mm 2 m/S 749 mmHg 83%
    07:00 +24°C° 0 mm 2 m/S 749 mmHg 79%
    08:00 +24°C° 0 mm 2 m/S 749 mmHg 75%
    09:00 +25°C° 0 mm 2 m/S 749 mmHg 71%
    10:00 +26°C° 0 mm 3 m/S 749 mmHg 65%
    11:00 +28°C° 0 mm 4 m/S 748 mmHg 60%
    12:00 +29°C° 0 mm 4 m/S 748 mmHg 54%
    13:00 +29°C° 0 mm 4 m/S 748 mmHg 55%
    14:00 +29°C° 0 mm 4 m/S 747 mmHg 55%
    15:00 +29°C° 0 mm 4 m/S 747 mmHg 56%
    16:00 +29°C° 0 mm 4 m/S 747 mmHg 58%
    17:00 +28°C° 0 mm 4 m/S 747 mmHg 61%
    18:00 +27°C° 0 mm 4 m/S 746 mmHg 64%
    19:00 +27°C° 0 mm 3 m/S 747 mmHg 68%
    20:00 +26°C° 0 mm 2 m/S 747 mmHg 72%
    21:00 +25°C° 0 mm 1 m/S 747 mmHg 76%
    22:00 +24°C° 0 mm 2 m/S 748 mmHg 80%
    23:00 +23°C° 0 mm 2 m/S 748 mmHg 83%

    24 Juni, Montag

    Zeit Temperatur Niederschläge Wind Luftdruck Luftfeuchtigkeit
    00:00 +23°C° 0 mm 2 m/S 748 mmHg 87%
    01:00 +23°C° 0 mm 2 m/S 748 mmHg 88%
    02:00 +23°C° 0 mm 2 m/S 748 mmHg 89%
    03:00 +21°C° 0 mm 2 m/S 748 mmHg 91%
    04:00 +23°C° 0 mm 2 m/S 748 mmHg 88%
    05:00 +23°C° 0 mm 2 m/S 748 mmHg 86%
    06:00 +23°C° 0 mm 2 m/S 749 mmHg 83%
    07:00 +24°C° 0 mm 2 m/S 749 mmHg 75%
    08:00 +26°C° 0 mm 2 m/S 749 mmHg 67%
    09:00 +27°C° 0 mm 2 m/S 749 mmHg 60%
    10:00 +28°C° 0 mm 2 m/S 749 mmHg 56%
    11:00 +30°C° 0 mm 3 m/S 749 mmHg 51%
    12:00 +31°C° 0 mm 3 m/S 748 mmHg 47%
    13:00 +31°C° 0 mm 3 m/S 748 mmHg 49%
    14:00 +31°C° 0 mm 3 m/S 748 mmHg 50%
    15:00 +30°C° 0 mm 3 m/S 748 mmHg 51%
    16:00 +30°C° 0 mm 3 m/S 748 mmHg 54%
    17:00 +29°C° 0 mm 3 m/S 748 mmHg 57%
    18:00 +28°C° 0 mm 2 m/S 748 mmHg 60%
    19:00 +27°C° 0 mm 2 m/S 748 mmHg 68%
    20:00 +25°C° 0 mm 3 m/S 749 mmHg 75%
    21:00 +24°C° 0 mm 3 m/S 749 mmHg 82%
    22:00 +22°C° 0 mm 3 m/S 750 mmHg 85%
    23:00 +22°C° 0 mm 3 m/S 750 mmHg 87%
    Mehr zeigen